Regional Weather Roundup
Issued by NWS Mt. Holly, NJ

Home | Current Version | Previous Version | Text Only | Print | Product List | Glossary On
Versions: 1 2 3 4 5 6 7 8 9 10 11 12 13 14 15 16 17 18 19 20 21 22 23 24 25 26 27
000
ASUS41 KPHI 202312
RWRPHI

REGIONAL WEATHER ROUNDUP
NATIONAL WEATHER SERVICE MOUNT HOLLY NJ
700 PM EDT WED SEP 20 2017

NOTE:  "FAIR" INDICATES FEW OR NO CLOUDS BELOW 12,000 FEET WITH NO
SIGNIFICANT WEATHER AND/OR OBSTRUCTIONS TO VISIBILITY.

 * = STATION DOES NOT REPORT PRECIPITATION (E.G. RAIN, SNOW, ETC.)
        OR FOG.

NJZ015>026-210000-
SOUTHERN NEW JERSEY

CITY           SKY/WX    TMP DP  RH WIND       PRES   REMARKS
POMONA         PTCLDY    77  68  73 N5        29.90R
WILDWOOD*      PTCLDY    77  71  82 NE5       29.91R
MILLVILLE      MOCLDY    82  69  64 NE10      29.90R
WRIGHTSTOWN    PTCLDY    76  66  70 N7        29.89R
MOUNT HOLLY    MOCLDY    77  68  73 N5        29.90S
TRENTON        PTCLDY    79  66  64 NE5       29.91R

$$
NJZ001>014-210000-
NORTHERN NEW JERSEY

CITY           SKY/WX    TMP DP  RH WIND       PRES   REMARKS
SUSSEX         PTCLDY    74  66  76 CALM      29.93S
ANDOVER*         N/A     73  68  84 CALM      29.94S
MORRISTOWN     PTCLDY    75  66  73 NE5       29.92S
NEWARK         MOCLDY    79  63  57 N12       29.90S
TETERBORO      MOCLDY    79  64  60 N8        29.89S
CALDWELL       PTCLDY    77  66  68 NE3       29.92R
ALLAIRE*       CLOUDY    76  65  68 NW8       29.91S
TOMS RIVER*    MOCLDY    76  66  71 N8        29.91R

$$
PAZ043-044-047-054-055-060>062-066>071-210000-
EASTERN PENNSYLVANIA

CITY           SKY/WX    TMP DP  RH WIND       PRES   REMARKS
PHILADELPHIA   PTCLDY    80  64  58 NE10G21   29.90S
NORTH PHILA    CLEAR     80  65  59 NE7       29.93R
BLUE BELL*     CLEAR     72  64  78 CALM      29.94R
DOYLESTOWN     CLEAR     78  64  61 NE6       29.92R
QUAKERTOWN*    CLEAR     77  64  65 NE3       29.95R
PERKASIE*      FAIR      72  68  88 CALM      29.95R
POTTSTOWN      CLOUDY    77  69  76 CALM      29.95R
LANCASTER      CLEAR     79  65  62 NW6       29.94S
COATESVILLE    CLEAR     77  64  65 NW7       29.95S
READING        PTCLDY    80  65  59 N5        29.92S
ALLENTOWN      PTCLDY    77  62  59 NE6       29.93R
MOUNT POCONO   CLEAR     72  60  66 N6        30.00S
HAZLETON         N/A     73  57  56 CALM      30.03S
LEHIGHTON      FAIR      75  63  64 CALM      29.95R
WILKES BARRE   CLEAR     79  60  52 N6        29.97S

$$
DEZALL-MDZ008-012-015-019-020-210000-
DELAWARE AND EASTERN MARYLAND

CITY           SKY/WX    TMP DP  RH WIND       PRES   REMARKS
WILMINGTON     CLEAR     80  65  59 NW7       29.91R
DOVER          CLEAR     79  79 100 NW5       29.91R
GEORGETOWN     CLEAR     81  68  64 CALM      29.91R
EASTON         CLEAR     79  68  69 CALM      29.95S
ABERDEEN       CLEAR     79  66  64 NW3       29.92S
PATUXENT       PTCLDY    78  65  63 NW6       29.92R
OCEAN CITY     CLEAR     77  70  79 NW3       29.91R
WALLOPS ISLAND CLEAR     77  69  76 NW5       29.92R
CAMBRIDGE      CLEAR     77  68  73 CALM      29.91S
SALISBURY      CLEAR     79  68  69 NW3       29.91R

$$
PAZ001-021-NYZ056-072-MDZ011-DCZ001-210000-
OTHER NEARBY LOCATIONS

CITY           SKY/WX    TMP DP  RH WIND       PRES   REMARKS
HARRISBURG     PTCLDY    80  60  50 NW7       29.94R
STATE COLLEGE  CLEAR     77  57  50 NW6       30.00S
WILLIAMSPORT   CLEAR     75  66  73 SW3       29.95S
BINGHAMTON     CLEAR     73  58  59 N7        30.02R
NEW YORK CITY  MOCLDY    78  64  61 NE6       29.92F
BALTIMORE      PTCLDY    81  61  50 NW3       29.93R
WASHINGTON DC  PTCLDY    84  63  49 NW9       29.93S

$$




USA.gov is the U.S. government's official web portal to all federal, state and local government web resources and services.